Location: Narrabri
(30.3170°S, 149.7830°E)
Time: 11:07:21
(UTC+11:00)

Tiangong 1 - Pass Details

Date: 11 October 2017
Orbit: 294 x 321 km, 42.8° (Epoch: 16 October)

Event Time Altitude Azimuth Distance (km) Brightness Sun altitude
Exits shadow 05:00:18 24° 181° (S) 678 2.5 -19.1°
Drops below altitude 10° 05:02:03 10° 145° (SE) 1,192 4.3 -18.7°
Sets 05:04:12 0° 132° (SE) 2,028 6.0 -18.3°
